This demonstration page uses our WeatherBlox Daily Observations layout. Learn more.

Left ArrowRight Arrow

Hourly Observations for May 21, 2017

Temp ( °F °C ) Dew Point ( °F °C ) Humidity (%) Winds ( mph kmh ) Pressure ( in mb ) Visibility ( mi km ) Precip ( " mm )
12:52 am 00:52 Clear 53 11.7 49 9.4 86 86 SW 5 7 30.03 1017 10 16 0.00 0.00
1:52 am 01:52 Clear 51 10.6 48 8.9 89 89 SW 7 11 30.03 1017 10 16 0.00 0.00
2:52 am 02:52 Clear 50 10 48 8.9 93 93 SW 7 11 30.03 1017 10 16 0.00 0.00
3:52 am 03:52 Clear 51 10.6 48 8.9 89 89 SW 8 13 30.03 1017 10 16 0.00 0.00
4:52 am 04:52 Clear 53 11.7 47 8.3 80 80 WNW 12 19 30.04 1017 10 16 0.00 0.00
5:52 am 05:52 Clear 50 10 47 8.3 89 89 WNW 6 9 30.07 1018 10 16 0.00 0.00
6:52 am 06:52 Sunny 50 10 44 6.7 80 80 WNW 10 17 30.11 1020 10 16 0.00 0.00
7:52 am 07:52 Sunny 51 10.6 43 6.1 74 74 WNW 8 13 30.12 1020 10 16 0.00 0.00
8:52 am 08:52 Sunny 53 11.7 43 6.1 69 69 WNW 10 17 30.15 1021 10 16 0.00 0.00
9:52 am 09:52 Sunny 56 13.3 44 6.7 65 65 WNW 12 19 30.16 1021 10 16 0.00 0.00
10:52 am 10:52 Sunny 59 15 44 6.7 58 58 WNW 10 17 30.16 1021 10 16 0.00 0.00
11:52 am 11:52 Sunny 62 16.7 44 6.7 52 52 NW 16 26 30.17 1022 10 16 0.00 0.00
12:52 pm 12:52 Sunny 65 18.3 45 7.2 49 49 WNW 12 19 30.15 1021 10 16 0.00 0.00
1:52 pm 13:52 Sunny 67 19.4 46 7.8 47 47 NW 13 20 30.14 1021 10 16 0.00 0.00
2:52 pm 14:52 Sunny 69 20.6 45 7.2 42 42 NW 10 17 30.13 1020 10 16 0.00 0.00
3:52 pm 15:52 Sunny 69 20.6 44 6.7 41 41 NNW 9 15 30.12 1020 10 16 0.00 0.00
4:52 pm 16:52 Sunny 69 20.6 42 5.6 38 38 NW 8 13 30.10 1019 10 16 0.00 0.00
5:52 pm 17:52 Sunny 69 20.6 44 6.7 41 41 WNW 8 13 30.11 1020 10 16 0.00 0.00
6:52 pm 18:52 Sunny 69 20.6 44 6.7 41 41 WNW 7 11 30.12 1020 10 16 0.00 0.00
7:52 pm 19:52 Sunny 67 19.4 47 8.3 49 49 Calm 30.12 1020 10 16 0.00 0.00
8:52 pm 20:52 Clear 62 16.7 49 9.4 62 62 Calm 30.14 1021 10 16 0.00 0.00
9:52 pm 21:52 Clear 57 13.9 51 10.6 81 81 Calm 30.14 1021 10 16 0.00 0.00
10:52 pm 22:52 Clear 56 13.3 51 10.6 84 84 Calm 30.15 1021 10 16 0.00 0.00
11:52 pm 23:52 Clear 56 13.3 51 10.6 84 84 Calm 30.15 1021 10 16 0.00 0.00

Powered by AerisWeather